Location: Unspecified
(0.0000°N, 0.0000°E)
Time: 20:17:35
(UTC+01:00)

Centaur D-1AR AC-41 - Visible Passes

Search period start: 19 January 2017 00:00
Search period end: 29 January 2017 00:00
Orbit: 646 x 36195 km, 21.6° (Epoch: 18 January)

Date Brightness Start Highest point End Pass type
(mag) Time Alt. Az. Time Alt. Az. Time Alt. Az.
19 Jan 7.3 04:31:53 10° WSW 09:06:20 82° SSW 14:43:00 10° NE visible
20 Jan 6.7 02:06:40 43° SSW 02:10:13 46° S 12:07:36 10° ENE visible
20 Jan 7.4 23:42:18 16° ESE 23:42:18 16° ESE 23:47:58 10° ESE visible
21 Jan 10.0 03:55:03 10° E 07:47:17 35° E 09:19:12 10° ENE visible
21 Jan 3.5 20:54:15 10° NW 20:57:23 38° NNW 20:57:23 38° NNW visible
23 Jan 6.5 05:49:11 10° WSW 08:19:33 71° SW 15:57:19 10° NE visible
24 Jan 7.1 03:17:01 26° SW 03:40:12 53° SSE 13:24:18 10° ENE visible
25 Jan 6.9 00:52:39 37° SSE 00:52:39 37° SSE 10:45:25 10° ENE visible
26 Jan 10.9 04:38:49 10° E 06:30:54 18° E 07:36:42 10° ENE visible
26 Jan 4.0 19:34:21 10° NW 19:40:09 30° NNE 19:43:30 10° ENE visible
28 Jan 7.1 04:28:43 10° WSW 08:19:16 82° SSW 14:39:20 10° NE visible
